Location: Aciu?a
(46.2833°N, 22.4500°E)
Time: 12:50:47
(UTC+00:00)

Cosmos 2228 - Pass Details

Date: 25 October 2021
Orbit: 587 x 619 km, 82.5° (Epoch: 06 December)

Event Time Altitude Azimuth Distance (km) Brightness Sun altitude
Rises 16:53:00 0° 167° (SSE) 2,874 6.4 -15.6°
Reaches altitude 10° 16:55:18 10° 160° (SSE) 1,977 5.5 -16.0°
Maximum altitude 16:59:23 39° 92° (E) 936 3.4 -16.7°
Drops below altitude 10° 17:03:29 10° 24° (NNE) 1,995 5.4 -17.4°
Sets 17:05:49 0° 16° (NNE) 2,905 6.3 -17.8°
